Worthington, MN

12:25 PM CST on November 18, 2017 (GMT -0600)
Worthington Municipal

Weather History for KOTG - October, 2013

Change the Weather History Date:

Wednesday, October 9, 2013

  Actual Average Record
Temperature  
Mean Temperature 64 °F -  
Max Temperature 78 °F 60 °F 80 °F (2010)
Min Temperature 51 °F 40 °F 24 °F (1974)
Growing Degree Days 14 (Base 50)    
Moisture  
Dew Point 44 °F    
Average Humidity 50    
Maximum Humidity 71    
Minimum Humidity 30    
Precipitation  
Precipitation 0.00 in - - ()
Sea Level Pressure  
Sea Level Pressure 29.97 in    
Wind  
Wind Speed 13 mph (South)    
Max Wind Speed 18 mph    
Max Gust Speed 25 mph    
Visibility 10 miles    
Events      
Averages and records for this station are not official NWS values.
T = Trace of Precipitation, MM = Missing Value Source: NWS Daily Summary

Daily Weather History Graph

Daily Weather History Graph

Search for Another Location

Airport or City:

Trip Planner

Search our weather history database for the weather conditions in past years. The results will help you decide how hot, cold, wet, or windy it might be!

Date:

Astronomy

Oct. 09, 2013 Rise Set
Actual Time 7:29 AM CDT 6:48 PM CDT
Civil Twilight 7:00 AM CDT 7:17 PM CDT
Nautical Twilight 6:27 AM CDT 7:50 PM CDT
Astronomical Twilight 5:54 AM CDT 8:23 PM CDT
Moon 12:33 PM CDT (10/9) 10:16 PM CDT (10/9)
Length of Visible Light 12h 16m
Length of Day
11h 19m
Waxing Crescent, 25% of the Moon is Illuminated
Oct 9
Waxing Crescent
Oct 11
First Quarter
Oct 18
Full
Oct 26
Last Quarter
Nov 3
New

Hourly Weather History & Observations

Time (CDT) Temp. Dew Point Humidity Pressure Visibility Wind Dir Wind Speed Gust Speed Precip Events Conditions
12:15 AM 60.8 °F 41.0 °F 48% 29.92 in 10.0 mi South 13.8 mph 18.4 mph N/A   Clear
12:35 AM 60.8 °F 41.0 °F 48% 29.93 in 10.0 mi South 12.7 mph - N/A   Clear
12:55 AM 59.0 °F 41.0 °F 51% 29.93 in 10.0 mi South 12.7 mph 19.6 mph N/A   Clear
1:15 AM 59.0 °F 41.0 °F 51% 29.93 in 10.0 mi South 12.7 mph 18.4 mph N/A   Clear
1:35 AM 59.0 °F 41.0 °F 51% 29.93 in 10.0 mi South 11.5 mph - N/A   Clear
1:55 AM 59.0 °F 41.0 °F 51% 29.94 in 10.0 mi South 12.7 mph - N/A   Clear
2:15 AM 59.0 °F 41.0 °F 51% 29.94 in 10.0 mi South 11.5 mph - N/A   Clear
2:35 AM 57.2 °F 41.0 °F 55% 29.95 in 10.0 mi South 13.8 mph - N/A   Clear
2:55 AM 57.2 °F 42.8 °F 59% 29.95 in 10.0 mi South 10.4 mph 19.6 mph N/A   Clear
3:15 AM 57.2 °F 42.8 °F 59% 29.95 in 10.0 mi South 11.5 mph 17.3 mph N/A   Clear
3:35 AM 57.2 °F 42.8 °F 59% 29.95 in 10.0 mi South 10.4 mph - N/A   Clear
3:55 AM 55.4 °F 42.8 °F 63% 29.95 in 10.0 mi South 13.8 mph - N/A   Clear
4:15 AM 55.4 °F 42.8 °F 63% 29.96 in 10.0 mi South 15.0 mph 19.6 mph N/A   Clear
4:35 AM 55.4 °F 42.8 °F 63% 29.96 in 10.0 mi South 12.7 mph - N/A   Clear
4:55 AM 55.4 °F 42.8 °F 63% 29.96 in 10.0 mi South 11.5 mph - N/A   Clear
5:15 AM 55.4 °F 42.8 °F 63% 29.96 in 10.0 mi South 10.4 mph - N/A   Clear
5:35 AM 55.4 °F 42.8 °F 63% 29.97 in 10.0 mi South 13.8 mph - N/A   Clear
5:55 AM 53.6 °F 42.8 °F 67% 29.97 in 10.0 mi South 10.4 mph - N/A   Clear
6:15 AM 53.6 °F 42.8 °F 67% 29.97 in 10.0 mi South 11.5 mph - N/A   Clear
6:35 AM 53.6 °F 42.8 °F 67% 29.98 in 10.0 mi South 10.4 mph - N/A   Clear
6:55 AM 53.6 °F 42.8 °F 67% 29.98 in 10.0 mi South 11.5 mph - N/A   Clear
7:15 AM 53.6 °F 42.8 °F 67% 29.98 in 10.0 mi South 9.2 mph - N/A   Clear
7:35 AM 51.8 °F 42.8 °F 71% 29.98 in 10.0 mi South 11.5 mph - N/A   Clear
7:55 AM 53.6 °F 42.8 °F 67% 29.98 in 10.0 mi South 12.7 mph 18.4 mph N/A   Clear
8:15 AM 53.6 °F 42.8 °F 67% 29.99 in 10.0 mi South 12.7 mph 18.4 mph N/A   Clear
8:35 AM 55.4 °F 42.8 °F 63% 29.98 in 10.0 mi South 17.3 mph 20.7 mph N/A   Clear
8:55 AM 55.4 °F 42.8 °F 63% 29.98 in 10.0 mi South 16.1 mph 23.0 mph N/A   Clear
9:15 AM 55.4 °F 42.8 °F 63% 30.00 in 10.0 mi WSW 9.2 mph 17.3 mph N/A   Clear
9:35 AM 57.2 °F 42.8 °F 59% 30.00 in 10.0 mi SSW 13.8 mph 19.6 mph N/A   Clear
9:55 AM 59.0 °F 44.6 °F 59% 30.00 in 10.0 mi South 13.8 mph 21.9 mph N/A   Clear
10:15 AM 60.8 °F 44.6 °F 55% 30.01 in 10.0 mi South 12.7 mph 21.9 mph N/A   Clear
10:35 AM 62.6 °F 44.6 °F 52% 30.01 in 10.0 mi South 16.1 mph 20.7 mph N/A   Clear
10:55 AM 64.4 °F 44.6 °F 49% 30.01 in 10.0 mi South 15.0 mph 18.4 mph N/A   Clear
11:15 AM 66.2 °F 44.6 °F 46% 30.01 in 10.0 mi South 11.5 mph 18.4 mph N/A   Clear
11:35 AM 66.2 °F 44.6 °F 46% 30.01 in 10.0 mi South 16.1 mph - N/A   Clear
11:55 AM 68.0 °F 44.6 °F 43% 30.01 in 10.0 mi South 12.7 mph - N/A   Clear
12:15 PM 69.8 °F 46.4 °F 43% 30.01 in 10.0 mi South 15.0 mph - N/A   Clear
12:35 PM 69.8 °F 46.4 °F 43% 30.01 in 10.0 mi South 12.7 mph 23.0 mph N/A   Clear
12:55 PM 71.6 °F 46.4 °F 41% 30.01 in 10.0 mi South 12.7 mph 19.6 mph N/A   Clear
1:15 PM 73.4 °F 46.4 °F 38% 30.00 in 5.0 mi South 12.7 mph 17.3 mph N/A   Clear
1:35 PM 73.4 °F 46.4 °F 38% 30.00 in 10.0 mi South 11.5 mph - N/A   Clear
1:55 PM 73.4 °F 46.4 °F 38% 29.99 in 10.0 mi South 12.7 mph 19.6 mph N/A   Clear
2:15 PM 75.2 °F 46.4 °F 36% 29.98 in 10.0 mi South 12.7 mph 19.6 mph N/A   Clear
2:35 PM 75.2 °F 46.4 °F 36% 29.98 in 10.0 mi SSE 12.7 mph 18.4 mph N/A   Clear
2:55 PM 75.2 °F 46.4 °F 36% 29.98 in 10.0 mi SSE 16.1 mph - N/A   Clear
3:15 PM 77.0 °F 44.6 °F 32% 29.97 in 6.0 mi South 18.4 mph - N/A   Clear
3:35 PM 77.0 °F 44.6 °F 32% 29.97 in 5.0 mi SSE 17.3 mph 23.0 mph N/A   Clear
3:55 PM 77.0 °F 44.6 °F 32% 29.96 in 7.0 mi SSE 17.3 mph - N/A   Clear
4:15 PM 78.8 °F 44.6 °F 30% 29.96 in 10.0 mi SSE 17.3 mph 24.2 mph N/A   Clear
4:35 PM 77.0 °F 44.6 °F 32% 29.96 in 10.0 mi SSE 16.1 mph 25.3 mph N/A   Clear
4:55 PM 77.0 °F 44.6 °F 32% 29.95 in 10.0 mi SSE 17.3 mph 24.2 mph N/A   Clear
5:15 PM 75.2 °F 44.6 °F 34% 29.95 in 10.0 mi SSE 13.8 mph 21.9 mph N/A   Clear
5:35 PM 75.2 °F 44.6 °F 34% 29.95 in 10.0 mi SSE 16.1 mph 21.9 mph N/A   Clear
5:55 PM 75.2 °F 44.6 °F 34% 29.95 in 10.0 mi SSE 11.5 mph 23.0 mph N/A   Clear
6:15 PM 73.4 °F 44.6 °F 36% 29.95 in 10.0 mi SSE 13.8 mph - N/A   Clear
6:35 PM 71.6 °F 44.6 °F 38% 29.95 in 10.0 mi SSE 11.5 mph - N/A   Clear
6:55 PM 69.8 °F 44.6 °F 40% 29.96 in 10.0 mi SE 10.4 mph - N/A   Clear
7:15 PM 66.2 °F 44.6 °F 46% 29.96 in 10.0 mi SE 10.4 mph - N/A   Clear
7:35 PM 66.2 °F 44.6 °F 46% 29.96 in 10.0 mi SSE 11.5 mph - N/A   Clear
7:55 PM 66.2 °F 44.6 °F 46% 29.97 in 10.0 mi SSE 10.4 mph - N/A   Clear
8:15 PM 64.4 °F 42.8 °F 45% 29.97 in 10.0 mi SSE 10.4 mph - N/A   Clear
8:35 PM 64.4 °F 42.8 °F 45% 29.97 in 10.0 mi SSE 10.4 mph - N/A   Clear
8:55 PM 64.4 °F 41.0 °F 42% 29.98 in 10.0 mi SSE 10.4 mph - N/A   Clear
9:15 PM 64.4 °F 41.0 °F 42% 29.99 in 10.0 mi SSE 12.7 mph 17.3 mph N/A   Clear
9:35 PM 62.6 °F 42.8 °F 48% 29.99 in 10.0 mi SSE 12.7 mph - N/A   Clear
9:55 PM 62.6 °F 42.8 °F 48% 30.00 in 10.0 mi SSE 12.7 mph - N/A   Clear
10:15 PM 60.8 °F 42.8 °F 52% 30.00 in 10.0 mi SSE 11.5 mph - N/A   Clear
10:35 PM 60.8 °F 42.8 °F 52% 30.00 in 10.0 mi SSE 11.5 mph - N/A   Clear
10:55 PM 60.8 °F 42.8 °F 52% 30.00 in 10.0 mi SSE 11.5 mph - N/A   Clear
11:15 PM 60.8 °F 42.8 °F 52% 30.00 in 10.0 mi SSE 12.7 mph - N/A   Clear
11:35 PM 60.8 °F 42.8 °F 52% 30.01 in 10.0 mi South 13.8 mph 19.6 mph N/A   Clear
11:55 PM 59.0 °F 42.8 °F 55% 30.00 in 10.0 mi South 13.8 mph - N/A   Clear